Weather History for Kuwait, Kuwait

Change the Weather History Date:

Saturday, February 16, 2013

  Actual Average Record
Temperature  
Mean Temperature 70 °F -  
Max Temperature 82 °F 74 °F 82 °F (2013)
Min Temperature 57 °F 52 °F 35 °F (1997)
Cooling Degree Days 4    
Growing Degree Days 20 (Base 50)    
Moisture  
Dew Point 38 °F    
Average Humidity 41    
Maximum Humidity 82    
Minimum Humidity 9    
Precipitation  
Precipitation 0.00 in 0.02 in - ()
Sea Level Pressure  
Sea Level Pressure 29.93 in    
Wind  
Wind Speed 12 mph ()    
Max Wind Speed 20 mph    
Max Gust Speed -    
Visibility 4.6 miles    
Events      
Averages and records for this station are not official NWS values.
T = Trace of Precipitation, MM = Missing Value Source: Averaged Metar Reports

Daily Weather History Graph

Daily Weather History Graph

Search for Another Location

Airport:

Trip Planner

Search our weather history database for the weather conditions in past years. The results will help you decide how hot, cold, wet, or windy it might be!

Date:

Astronomy

Feb. 16, 2013 Rise Set
Actual Time 6:26 AM AST 5:38 PM AST
Civil Twilight 6:02 AM AST 6:02 PM AST
Nautical Twilight 5:34 AM AST 6:30 PM AST
Astronomical Twilight 5:06 AM AST 6:58 PM AST
Moon 9:57 AM AST (2/16) 11:39 PM AST (2/16)
Length of Visible Light 12h 00m
Length of Day
11h 12m
Waxing Crescent, 36% of the Moon is Illuminated
Feb 16
Waxing Crescent
Feb 17
First Quarter
Feb 25
Full
Mar 5
Last Quarter
Mar 11
New

Hourly Weather History & Observations

Time (AST) Temp. Dew Point Humidity Pressure Visibility Wind Dir Wind Speed Gust Speed Precip Events Conditions
12:00 AM 57.2 °F 51.8 °F 82% 30.01 in - SSE 8.1 mph - N/A   Clear
1:00 AM 59.0 °F 50.0 °F 72% 29.98 in - South 9.2 mph - N/A   Clear
2:00 AM 57.2 °F 50.0 °F 77% 29.98 in - SSE 9.2 mph - N/A   Clear
3:00 AM 57 °F 52 °F 77% 29.96 in 6 mi South 12.7 mph - -   Clear
3:00 AM 57.2 °F 51.8 °F 82% 29.95 in - South 12.7 mph - N/A   Clear
4:00 AM 57.2 °F 50.0 °F 77% 29.95 in - South 10.4 mph - N/A   Clear
5:00 AM 57.2 °F 44.6 °F 63% 29.92 in - SSE 10.4 mph - N/A   Clear
6:00 AM 57.2 °F 44.6 °F 63% 29.95 in - South 10.4 mph - N/A   Clear
7:00 AM 59.0 °F 42.8 °F 55% 29.95 in - South 12.7 mph - N/A   Clear
8:00 AM 62.6 °F 41.0 °F 45% 29.95 in - South 13.8 mph - N/A   Clear
9:00 AM 65 °F 40 °F 29% 29.95 in 6 mi South 17.3 mph - -   Clear
9:00 AM 66.2 °F 41.0 °F 40% 29.95 in - South 17.3 mph - N/A   Clear
10:00 AM 71.6 °F 33.8 °F 25% 29.92 in - South 18.4 mph - N/A   Clear
11:00 AM 77.0 °F 24.8 °F 14% 29.89 in - South 18.4 mph - N/A   Clear
12:00 PM 80.6 °F 23.0 °F 12% 29.89 in - South 16.1 mph - N/A   Clear
1:00 PM 82.4 °F 24.8 °F 12% 29.86 in - WSW 13.8 mph - N/A   Clear
2:00 PM 77.0 °F 23.0 °F 13% 29.86 in 5.0 mi WNW 19.6 mph - N/A   Light Blowing Widespread Dust
3:00 PM 74 °F 27 °F 9% 29.86 in 5 mi NW 16.1 mph - -   Haze
3:00 PM 73.4 °F 26.6 °F 18% 29.86 in 5.0 mi NW 16.1 mph - N/A   Unknown
4:00 PM 71.6 °F 32.0 °F 23% 29.89 in 2.5 mi NNW 19.6 mph - N/A   Widespread Dust
5:00 PM 69.8 °F 30.2 °F 23% 29.92 in 3.1 mi NNW 19.6 mph - N/A   Widespread Dust
6:00 PM 68.0 °F 32.0 °F 26% 29.92 in 4.3 mi NNW 17.3 mph - N/A   Unknown
7:00 PM 68.0 °F 33.8 °F 28% 29.95 in - NW 16.1 mph - N/A   Clear
8:00 PM 68.0 °F 39.2 °F 35% 29.95 in 5.0 mi NNW 17.3 mph - N/A   Unknown
9:00 PM 66 °F 43 °F 31% 29.97 in 4 mi NNW 13.8 mph - -   Haze
9:00 PM 66.2 °F 42.8 °F 43% 29.95 in 4.3 mi NNW 13.8 mph - N/A   Unknown
10:00 PM 64.4 °F 41.0 °F 42% 29.98 in 4.3 mi NNW 13.8 mph - N/A   Unknown
11:00 PM 64.4 °F 39.2 °F 40% 29.98 in 5.0 mi NNW 16.1 mph - N/A   Unknown